Location: Cartersville (historical)
(42.9944°N, 93.0869°W)
Time: 02:18:54
(UTC+00:00)

ARIANE 6 FM1 Upper Stage - Pass Details

Date: 20 October 2024
Orbit: 522 x 612 km, 62.0° (Epoch: 18 November)

Event Time Altitude Azimuth Distance (km) Brightness Sun altitude
Rises 01:09:56 0° 323° (NW) 2,931 6.9 -20.4°
Reaches altitude 10° 01:12:15 10° 326° (NW) 2,024 6.0 -20.8°
Maximum altitude 01:16:51 69° 50° (NE) 681 2.8 -21.6°
Enters shadow 01:17:22 62° 93° (E) 714 2.8 -21.7°
